EW6343 Weather Reports


Display with metric or nautical units.
time (UTC)temp
F
wind
direction
speed
MPH
gust
MPH
rain 1hr
in
rain 24hr
in
rain mn
in
humidity
%
barometer
mb
20260510203004 51 0 0.0 3.0 0.00 0.00 0.00 76 1014.4
20260510201504 52 62 2.0 4.0 0.00 0.00 0.00 75 1014.3
20260510201004 52 0 0.0 4.0 0.00 0.00 0.00 75 1014.3
20260510200503 52 0 0.0 3.0 0.00 0.00 0.00 74 1014.3
20260510194504 53 11 2.0 6.0 0.00 0.00 0.00 73 1014.3
20260510194004 53 359 2.0 4.0 0.00 0.00 0.00 72 1014.3
20260510193503 54 353 2.0 4.0 0.00 0.00 0.00 72 1014.2
20260510191504 54 33 2.0 12.0 0.00 0.00 0.00 71 1014.1
20260510190503 55 62 3.0 12.0 0.00 0.00 0.00 70 1014.2
20260510185004 55 63 4.0 13.0 0.00 0.00 0.00 70 1014.3
20260510183504 55 64 6.0 14.0 0.00 0.00 0.00 70 1014.4
20260510182005 56 56 8.0 16.0 0.00 0.00 0.00 69 1014.4
20260510181003 56 47 6.0 17.0 0.00 0.00 0.00 68 1014.4
20260510180003 56 44 8.0 20.0 0.00 0.00 0.00 69 1014.4
20260510175504 56 45 9.0 22.0 0.00 0.00 0.00 69 1014.3
20260510174006 56 49 6.0 22.0 0.00 0.00 0.00 69 1014.3
20260510173506 56 49 6.0 22.0 0.00 0.00 0.00 69 1014.3
20260510170506 57 60 8.0 19.0 0.00 0.00 0.00 69 1014.3
20260510170006 57 58 9.0 20.0 0.00 0.00 0.00 69 1014.3
20260510165506 57 56 9.0 20.0 0.00 0.00 0.00 69 1014.3
20260510165006 58 62 8.0 22.0 0.00 0.00 0.00 68 1014.3
20260510164506 58 58 8.0 22.0 0.00 0.00 0.00 67 1014.4
20260510163506 59 63 9.0 22.0 0.00 0.00 0.00 67 1014.2
20260510163006 59 54 9.0 22.0 0.00 0.00 0.00 67 1014.2
20260510161006 60 49 8.0 17.0 0.00 0.00 0.00 66 1014.1
20260510160506 60 52 9.0 25.0 0.00 0.00 0.00 66 1014.1
20260510160006 60 58 10.0 25.0 0.00 0.00 0.00 65 1014.1
20260510155506 60 62 10.0 28.0 0.00 0.00 0.00 65 1014.1
20260510154006 61 70 8.0 23.0 0.00 0.00 0.00 65 1014.1
20260510152505 62 65 6.0 14.0 0.00 0.00 0.00 64 1014.1
20260510152007 61 76 6.0 17.0 0.00 0.00 0.00 64 1014.2
20260510151505 61 76 8.0 22.0 0.00 0.00 0.00 65 1014.3
20260510151007 61 68 8.0 22.0 0.00 0.00 0.00 63 1014.3
20260510150505 61 64 8.0 22.0 0.00 0.00 0.00 65 1014.4
20260510144005 64 68 6.0 25.0 0.00 0.00 0.00 63 1014.4
20260510143506 64 72 6.0 25.0 0.00 0.00 0.00 59 1014.5
20260510141005 65 79 4.0 16.0 0.00 0.00 0.00 58 1014.7
20260510135505 64 78 6.0 20.0 0.00 0.00 0.00 58 1014.8
20260510135006 65 85 4.0 16.0 0.00 0.00 0.00 58 1014.9
20260510134505 64 76 4.0 16.0 0.00 0.00 0.00 59 1014.8
20260510134006 64 67 4.0 13.0 0.00 0.00 0.00 59 1014.9
20260510133005 64 87 6.0 14.0 0.00 0.00 0.00 61 1014.9
20260510132506 64 94 6.0 14.0 0.00 0.00 0.00 58 1014.9
20260510131506 63 74 6.0 20.0 0.00 0.00 0.00 59 1015.0
20260510131006 64 74 4.0 14.0 0.00 0.00 0.00 60 1015.0
20260510130505 63 73 8.0 20.0 0.00 0.00 0.00 60 1015.1
20260510130006 63 74 9.0 20.0 0.00 0.00 0.00 61 1015.2
20260510123005 63 62 4.0 22.0 0.00 0.00 0.00 58 1015.4
20260510122506 63 78 8.0 28.0 0.00 0.00 0.00 60 1015.3
20260510120505 61 74 9.0 23.0 0.00 0.00 0.00 60 1015.6
20260510120005 61 73 8.0 23.0 0.00 0.00 0.00 57 1015.7
20260510115507 62 72 8.0 25.0 0.00 0.00 0.00 60 1015.6
20260510114505 61 71 6.0 19.0 0.00 0.00 0.00 60 1015.7
20260510114006 62 80 6.0 22.0 0.00 0.00 0.00 60 1015.8
20260510112506 62 79 6.0 14.0 0.00 0.00 0.00 59 1015.9
20260510103505 60 91 6.0 17.0 0.00 0.00 0.00 64 1015.9
20260510103005 60 78 8.0 20.0 0.00 0.00 0.00 65 1015.9
20260510102005 60 68 4.0 17.0 0.00 0.00 0.00 65 1016.1
20260510101505 60 58 6.0 19.0 0.00 0.00 0.00 66 1016.0
20260510095505 59 61 8.0 25.0 0.00 0.00 0.00 65 1016.1
20260510092506 58 67 8.0 20.0 0.00 0.00 0.00 67 1016.1
20260510092005 58 61 8.0 26.0 0.00 0.00 0.00 69 1016.2
20260510091006 57 64 8.0 19.0 0.00 0.00 0.00 69 1016.3
20260510090005 57 61 9.0 26.0 0.00 0.00 0.00 67 1016.5
20260510085505 58 57 6.0 20.0 0.00 0.00 0.00 70 1016.3
20260510085005 58 69 6.0 17.0 0.00 0.00 0.00 68 1016.4
20260510084505 58 76 6.0 17.0 0.00 0.00 0.00 68 1016.4
20260510083005 56 77 6.0 16.0 0.00 0.00 0.00 72 1016.5
20260510081505 55 59 9.0 17.0 0.00 0.00 0.00 75 1016.6
20260510081006 55 60 9.0 22.0 0.00 0.00 0.00 76 1016.6
20260510075505 53 59 9.0 22.0 0.00 0.00 0.00 78 1016.8
20260510074505 52 64 8.0 20.0 0.00 0.00 0.00 80 1016.9
20260510074005 51 61 8.0 20.0 0.00 0.00 0.00 81 1016.8
20260510073505 51 62 6.0 16.0 0.00 0.00 0.00 82 1016.8
20260510072006 50 54 4.0 10.0 0.00 0.00 0.00 82 1016.8
20260510065505 50 62 6.0 14.0 0.00 0.00 0.00 82 1016.7
20260510064504 50 71 6.0 14.0 0.00 0.00 0.00 82 1016.5
20260510064004 50 69 8.0 16.0 0.00 0.00 0.00 81 1016.4
20260510063505 50 63 8.0 16.0 0.00 0.00 0.00 81 1016.5
20260510061505 50 60 6.0 20.0 0.00 0.00 0.00 81 1016.2
20260510055504 50 44 4.0 13.0 0.00 0.00 0.00 80 1016.2
20260510054505 50 41 4.0 13.0 0.00 0.00 0.00 80 1016.2
20260510054005 50 42 4.0 14.0 0.00 0.00 0.00 80 1016.2
20260510053505 50 41 4.0 14.0 0.00 0.00 0.00 79 1016.1
20260510052505 50 57 6.0 16.0 0.00 0.00 0.00 78 1016.1
20260510051505 50 42 4.0 14.0 0.00 0.00 0.00 78 1016.1
20260510050504 50 56 4.0 13.0 0.00 0.00 0.00 77 1016.2
20260510050005 50 73 3.0 16.0 0.00 0.00 0.00 77 1016.2
20260510045505 50 72 3.0 16.0 0.00 0.00 0.00 76 1016.1
20260510044504 50 61 3.0 10.0 0.00 0.00 0.00 76 1016.1
20260510043504 50 61 4.0 13.0 0.00 0.00 0.00 75 1016.1
20260510042005 51 66 3.0 10.0 0.00 0.00 0.00 74 1016.0
20260510040004 52 60 3.0 7.0 0.00 0.00 0.00 73 1016.0
20260510033504 53 61 3.0 12.0 0.00 0.00 0.00 75 1016.1
20260510032504 53 59 3.0 10.0 0.00 0.00 0.00 77 1016.2
20260510032004 54 50 3.0 10.0 0.00 0.00 0.00 77 1016.1
20260510031505 54 58 3.0 12.0 0.00 0.00 0.00 77 1016.2
20260510030005 54 62 4.0 13.0 0.00 0.00 0.00 76 1016.1
20260510024504 55 50 3.0 7.0 0.00 0.00 0.00 75 1016.2